Regional Weather Roundup
Issued by NWS Portland, ME

Current Version | Previous Version | Text Only | Print | Product List | Glossary Off
Versions: 1 2 3 4 5 6 7 8 9 10 11 12 13 14 15 16 17 18 19 20 21 22 23 24 25 26 27 28 29 30 31 32 33 34 35 36 37 38 39 40 41 42 43 44 45 46 47 48 49 50
444 ASUS41 KGYX 220610 RWRGYX WEATHER ROUNDUP FOR MAINE AND NEW HAMPSHIRE NATIONAL WEATHER SERVICE GRAY ME 200 AM EDT FRI JUN 22 2018 MEZ002-005-006-010-012-015-018-020-021-024-026-027-029-220700- MAINE CITY SKY/WX TMP DP RH WIND PRES REMARKS PORTLAND FAIR 55 45 68 VRB6 29.96R 6HR MIN TEMP: 54; 6HR MAX TEMP: 64; SANFORD FAIR 55 46 71 N8 29.96S BAR HARBOR FAIR 51 43 74 N3 29.97R WISCASSET FAIR 52 46 80 CALM 29.97S 6HR MIN TEMP: 50; 6HR MAX TEMP: 62; ROCKLAND FAIR 58 44 60 VRB5 29.94S FRYEBURG FAIR 44 44 100 CALM 29.99S 6HR MIN TEMP: 43; 6HR MAX TEMP: 68; LEWISTONAUBURN FAIR 47 41 80 CALM 29.97S AUGUSTA FAIR 53 41 63 N5 29.97S 6HR MIN TEMP: 53; 6HR MAX TEMP: 70; WATERVILLE FAIR 53 40 61 NE5 29.95F BANGOR FAIR 50 43 77 N7 29.98R 6HR MIN TEMP: 50; 6HR MAX TEMP: 68; GREENVILLE N/A 49 43 80 N5 29.97S 6HR MIN TEMP: 48; 6HR MAX TEMP: 59; MILLINOCKET FAIR 45 40 82 CALM 29.99S 6HR MIN TEMP: 45; 6HR MAX TEMP: 66; HOULTON FAIR 37 36 96 CALM 29.97R 6HR MIN TEMP: 37; 6HR MAX TEMP: 58; PRESQUE ISLE FOG 37 37 100 S3 29.99R VSB 1 6HR MIN TEMP: 38; 6HR MAX TEMP: 58; FRENCHVILLE FAIR 47 36 65 W6 29.96S 6HR MIN TEMP: 46; 6HR MAX TEMP: 58; CARIBOU FAIR 42 37 82 CALM 29.96S 6HR MIN TEMP: 42; 6HR MAX TEMP: 58; $$ NHZ002-005-008-009-011-012-014-220700- NEW HAMPSHIRE CITY SKY/WX TMP DP RH WIND PRES REMARKS PORTSMOUTH CLEAR 60 47 64 N9 29.93R ROCHESTER FAIR 52 48 86 N7 29.95R 6HR MIN TEMP: 52; 6HR MAX TEMP: 69; NASHUA FAIR 59 46 62 NW7 29.95R MANCHESTER FAIR 62 44 51 N5 29.94R 6HR MIN TEMP: 62; 6HR MAX TEMP: 78; CONCORD FAIR 49 45 86 E3 29.97R 6HR MIN TEMP: 49; 6HR MAX TEMP: 73; LACONIA FAIR 50 46 86 CALM 29.98S PLYMOUTH N/A 43 42 94 CALM 29.99S BERLIN FAIR 38 36 92 CALM 30.02S 6HR MIN TEMP: 36; 6HR MAX TEMP: 63; WHITEFIELD FAIR 40 38 93 CALM 30.01S 6HR MIN TEMP: 39; 6HR MAX TEMP: 64; JAFFREY FAIR 52 46 80 CALM 29.97S 6HR MIN TEMP: 52; 6HR MAX TEMP: 74; KEENE FAIR 47 43 86 NE3 29.98R LEBANON FAIR 49 42 77 CALM 30.00S 6HR MIN TEMP: 47; 6HR MAX TEMP: 71; MT WASHINGTON CLEAR 37 10 32 W6 N/A 6HR MIN TEMP: 37; 6HR MAX TEMP: 41; $$ VTZ005-007-008-220700- VERMONT CITY SKY/WX TMP DP RH WIND PRES REMARKS ST JOHNSBURY N/A 45 43 93 MISG 30.00S MONTPELIER FAIR 43 40 89 CALM 30.05S BURLINGTON FAIR 50 44 80 CALM 30.00S $$ MAZ007-012-024-CTZ003-RIZ002-NYZ038-NYZ072-220700- SOUTHERN NEW ENGLAND AND NY CITY SKY/WX TMP DP RH WIND PRES REMARKS BOSTON FAIR 63 55 75 N7 29.92R WORCESTER FAIR 60 45 57 N8 29.95R NANTUCKET CLOUDY 59 58 96 N6 29.90R FOG PROVIDENCE FAIR 63 62 97 NW3 29.91S HARTFORD FAIR 62 46 55 N7 29.92R ALBANY FAIR 59 40 49 N5 29.96F NEW YORK CITY MOCLDY 71 62 73 E6 29.88R $$ ANZ081-ANZ082-ANZ150-NHZ014-MEZ023>029-220700- COASTAL MARINE OBSERVATIONS STATION/POSITION TIME TEMP WIND PRES WAVE AIR SEA DIR/SP/G HT/PER (UTC) (F) (DEG/KT/KT) (MB) (FT/S) MOUNT DESERT ROC 0600 52 20/ 12/ 13 1013.9F MATINICUS ROCK 0600 55 30/ 11/ 11 1013.3R ISLE OF SHOALS 0600 61 10/ 16/ 18 1013.1R JEFFREYS LEDGE 0536 59 N/A 1/15 $$ .............KEY.............. WCI - WIND CHILL TC - TEMPERATURE IN CELSIUS VSB - VISIBILITY IN MILES HX - HEAT INDEX FAIR- INDICATES FEW OR NO CLOUDS BELOW 12,000 FT, WITH NO SIGNIFICANT WEATHER AND/OR OBSTRUCTIONS TO VISIBILITY.

USA.gov is the U.S. government's official web portal to all federal, state and local government web resources and services.